AirNav   Bose ProFlight Aviation Headset
 
 1114 users online  

C43 Hiram Cure Airport
Sunfield, Michigan, USA

GOING TO SUNFIELD?


FAA INFORMATION EFFECTIVE 19 JULY 2018

Location

FAA Identifier: C43
Lat/Long: 42-46-12.1150N / 084-57-53.8470W
42-46.201917N / 084-57.897450W
42.7700319 / -84.9649575
(estimated)
Elevation: 853 ft. / 260 m (estimated)
Variation: 05W (1990)
From city: 2 miles NE of SUNFIELD, MI
Time zone: UTC -4 (UTC -5 during Standard Time)
Zip code: 48890

Airport Operations

Airport use: Open to the public
Activation date: 07/1992
Control tower: no
ARTCC: CLEVELAND CENTER
FSS: LANSING FLIGHT SERVICE STATION
NOTAMs facility: LAN (NOTAM-D service available)
Attendance: IREG
Wind indicator: yes
Segmented circle: no

Airport Communications

CTAF: 122.9
WX AWOS-3 at Y70 (11 nm NW): 118.9 (616-523-1852)
WX AWOS-3 at FPK (14 nm SE): 118.075 (517-543-2288)
WX ASOS at LAN (17 nm E): 119.75 (517-908-8494)

Nearby radio navigation aids

VOR radial/distance  VOR name  Freq  Var
LANr290/12.2LANSING VORTAC110.8005W
VIOr096/23.5VICTORY VOR/DME115.9504W
JXNr329/38.0JACKSON VOR/DME109.6005W

Airport Services

Runway Information

Runway 9/27

Dimensions: 2314 x 100 ft. / 705 x 30 m
Surface: turf, in good condition
Runway edge markings: 09/27 MARKED WITH 3 FT YELLOW CONES.
Operational restrictions: SOFT WHEN WET.
RUNWAY 9  RUNWAY 27
Traffic pattern: leftleft
Obstructions: 80 ft. tree, 1600 ft. from runway, 261 ft. right of centerline, 20:1 slope to clearnone

Airport Ownership and Management from official FAA records

Ownership: Privately-owned
Owner: KERRY HAYNOR
5630 EATON HWY
SUNFIELD, MI 48890
Phone 517-566-8008
FROM 0800-1700, AFT HR 517-256-6395
Manager: KERRY HAYNOR
5630 EATON HWY
SUNFIELD, MI 48890
Phone 517-566-8008
FROM 0800-1700, AFT HR MGR CELL 517-256-6395.

Airport Operational Statistics

Aircraft based on the field: 3
Single engine airplanes: 3
    
Aircraft operations: avg 26/month *
50% transient general aviation
50% local general aviation
* for 12-month period ending 31 December 2015

Additional Remarks

ARPT CLSD DEC THRU MAR & WHEN SNOW COVERED.
AMGR LIVES ON PREMISES.
CROPS ADJ TO RY.
DEER INVOF OF RY.

Instrument Procedures

There are no published instrument procedures at C43.

Some nearby airports with instrument procedures:

4D0 - Abrams Municipal Airport (10 nm E)
Y70 - Ionia County Airport (11 nm NW)
KFPK - Fitch H Beach Airport (14 nm SE)
KLAN - Capital Region International Airport (17 nm E)
9D9 - Hastings Airport (18 nm W)
 
Loc | Ops | Rwys | IFR | FBO | Links
Com | Nav | Svcs | Stats | Notes


 
Area around C43 (Hiram Cure Airport)
 
Road maps at: MapQuest Bing Google
 
Aerial photo
WARNING: Photo may not be current or correct
Aerial photo of C43 (Hiram Cure Airport)
Photo by Ren Wall, Kalamazoo
Taken in 2005

Do you have a better or more recent aerial photo of Hiram Cure Airport that you would like to share? If so, please send us your photo.

 
Sectional chart

 
Airport distance calculator
Flying to Hiram Cure Airport? Find the distance to fly.

From to C43

Sunrise and sunset
Times for 14-Aug-2018
 Local
(UTC-4)
 Zulu
(UTC)
Morning civil twilight06:1510:15
Sunrise06:4610:46
Sunset20:4300:43
Evening civil twilight21:1401:14

Current date and time
Zulu (UTC)  14-Aug-2018 23:39:11
Local (UTC-4)  14-Aug-2018 19:39:11
 
METAR
KY70 
11nm NW 
142315Z AUTO 25008KT 10SM CLR 28/17 A2994 RMK AO2 T02810171
KFPK 
14nm SE 
142315Z AUTO 26006KT 10SM CLR 27/18 A2996 RMK AO2 T02710178
KLAN 
17nm E 
142253Z 27013KT 9SM CLR 29/18 A2995 RMK AO2 SLP137 T02890183
TAF
KLAN 
17nm E 
141740Z 1418/1518 27008KT P6SM FEW035 FM150400 23004KT P6SM FEW200 FM151600 23009KT P6SM SCT200
NOTAMs
Click for the latest NOTAMs
NOTAMs are issued by the DoD/FAA and will open in a separate window not controlled by AirNav.

 

 
 

Would you like to see your business listed on this page?

 If your business provides an interesting product or service to pilots, flight crews, aircraft, or users of the Hiram Cure Airport, you should consider listing it here.  To start the listing process, click on the button below
 
Add a business
 

Other Pages about Hiram Cure Airport

Page from the Michigan Airport Directory (PDF)
 
Update a link
 
Copyright © AirNav, LLC. All rights reserved. Privacy Policy  Contact